• In Hungary
  • List of Countries
  • For 7 days
  • Water Temperature
  • Satellite Maps
  • Weather Map
  • News
  • Weather Widgets
  • user-avatar
    Login

    Hourly Weather Ibb

    Today, 16 November, Friday

    Time Temperature Precipitation Wind Pressure Humidity
    00:00 +16°C° 0 mm 1 mps 596 mmHg 46%
    01:00 +16°C° 0 mm 1 mps 596 mmHg 46%
    02:00 +16°C° 0 mm 1 mps 596 mmHg 46%
    03:00 +14°C° 0 mm 0 mps 595 mmHg 45%
    04:00 +14°C° 0 mm 0 mps 595 mmHg 46%
    05:00 +13°C° 0 mm 0 mps 595 mmHg 46%
    06:00 +13°C° 0 mm 0 mps 595 mmHg 46%
    07:00 +15°C° 0 mm 0 mps 596 mmHg 41%
    08:00 +19°C° 0 mm 1 mps 597 mmHg 35%
    09:00 +21°C° 0 mm 1 mps 599 mmHg 30%
    10:00 +22°C° 0 mm 1 mps 599 mmHg 28%
    11:00 +23°C° 0 mm 2 mps 599 mmHg 27%
    12:00 +24°C° 0 mm 2 mps 599 mmHg 25%
    13:00 +24°C° 0 mm 3 mps 599 mmHg 26%
    14:00 +24°C° 0 mm 3 mps 599 mmHg 27%
    15:00 +24°C° 0 mm 3 mps 598 mmHg 28%
    16:00 +22°C° 0 mm 3 mps 598 mmHg 33%
    17:00 +21°C° 0 mm 3 mps 598 mmHg 38%
    18:00 +20°C° 0 mm 2 mps 597 mmHg 44%
    19:00 +19°C° 0 mm 2 mps 598 mmHg 48%
    20:00 +19°C° 0 mm 1 mps 598 mmHg 52%
    21:00 +19°C° 0 mm 1 mps 598 mmHg 56%
    22:00 +18°C° 0 mm 1 mps 598 mmHg 58%
    23:00 +16°C° 0 mm 0 mps 598 mmHg 59%

    Tomorrow, 17 November, Saturday

    Time Temperature Precipitation Wind Pressure Humidity
    00:00 +16°C° 0 mm 0 mps 598 mmHg 61%
    01:00 +15°C° 0 mm 0 mps 597 mmHg 62%
    02:00 +15°C° 0 mm 0 mps 597 mmHg 64%
    03:00 +15°C° 0 mm 0 mps 596 mmHg 65%
    04:00 +14°C° 0 mm 0 mps 596 mmHg 65%
    05:00 +14°C° 0 mm 0 mps 596 mmHg 66%
    06:00 +14°C° 0 mm 0 mps 596 mmHg 67%
    07:00 +16°C° 0 mm 1 mps 597 mmHg 59%
    08:00 +19°C° 0 mm 1 mps 598 mmHg 52%
    09:00 +20°C° 0 mm 1 mps 599 mmHg 44%
    10:00 +20°C° 0 mm 2 mps 599 mmHg 41%
    11:00 +21°C° 0 mm 2 mps 599 mmHg 38%
    12:00 +22°C° 0 mm 3 mps 599 mmHg 35%
    13:00 +22°C° 0 mm 3 mps 599 mmHg 38%
    14:00 +22°C° 0 mm 3 mps 598 mmHg 41%
    15:00 +22°C° 0 mm 4 mps 598 mmHg 43%
    16:00 +21°C° 0.1 mm 3 mps 598 mmHg 49%
    17:00 +20°C° 0.1 mm 3 mps 597 mmHg 55%
    18:00 +19°C° 0.1 mm 2 mps 597 mmHg 61%
    19:00 +18°C° 0 mm 2 mps 597 mmHg 63%
    20:00 +18°C° 0 mm 2 mps 597 mmHg 65%
    21:00 +19°C° 0 mm 1 mps 598 mmHg 67%
    22:00 +18°C° 0 mm 1 mps 598 mmHg 67%
    23:00 +18°C° 0 mm 1 mps 597 mmHg 68%

    Day after tomorrow, 18 November, Sunday

    Time Temperature Precipitation Wind Pressure Humidity
    00:00 +18°C° 0 mm 1 mps 597 mmHg 68%
    01:00 +15°C° 0 mm 0 mps 597 mmHg 69%
    02:00 +15°C° 0 mm 0 mps 597 mmHg 69%
    03:00 +15°C° 0 mm 0 mps 596 mmHg 69%
    04:00 +14°C° 0 mm 0 mps 596 mmHg 69%
    05:00 +14°C° 0 mm 0 mps 596 mmHg 70%
    06:00 +14°C° 0 mm 0 mps 596 mmHg 70%
    07:00 +16°C° 0 mm 1 mps 597 mmHg 62%
    08:00 +19°C° 0 mm 1 mps 598 mmHg 53%
    09:00 +20°C° 0 mm 1 mps 599 mmHg 45%
    10:00 +20°C° 0 mm 2 mps 599 mmHg 41%
    11:00 +21°C° 0 mm 2 mps 599 mmHg 37%
    12:00 +24°C° 0 mm 2 mps 599 mmHg 33%
    13:00 +24°C° 0 mm 3 mps 599 mmHg 35%
    14:00 +24°C° 0 mm 3 mps 598 mmHg 37%
    15:00 +24°C° 0 mm 3 mps 598 mmHg 39%
    16:00 +21°C° 0.1 mm 3 mps 597 mmHg 46%
    17:00 +20°C° 0.1 mm 3 mps 597 mmHg 53%
    18:00 +19°C° 0.1 mm 2 mps 597 mmHg 59%
    19:00 +19°C° 0 mm 2 mps 597 mmHg 61%
    20:00 +18°C° 0 mm 2 mps 597 mmHg 63%
    21:00 +19°C° 0 mm 1 mps 598 mmHg 64%
    22:00 +18°C° 0 mm 1 mps 597 mmHg 65%
    23:00 +18°C° 0 mm 1 mps 597 mmHg 65%

    19 November, Monday

    Time Temperature Precipitation Wind Pressure Humidity
    00:00 +18°C° 0 mm 1 mps 597 mmHg 65%
    01:00 +18°C° 0 mm 1 mps 597 mmHg 65%
    02:00 +16°C° 0 mm 1 mps 596 mmHg 65%
    03:00 +16°C° 0 mm 1 mps 596 mmHg 65%
    04:00 +16°C° 0 mm 1 mps 596 mmHg 64%
    05:00 +15°C° 0 mm 1 mps 596 mmHg 63%
    06:00 +15°C° 0 mm 1 mps 596 mmHg 62%
    07:00 +16°C° 0 mm 1 mps 597 mmHg 55%
    08:00 +19°C° 0 mm 1 mps 598 mmHg 48%
    09:00 +20°C° 0 mm 1 mps 599 mmHg 41%
    10:00 +20°C° 0 mm 2 mps 599 mmHg 37%
    11:00 +21°C° 0 mm 2 mps 599 mmHg 34%
    12:00 +23°C° 0 mm 2 mps 599 mmHg 31%
    13:00 +24°C° 0 mm 3 mps 599 mmHg 32%
    14:00 +24°C° 0 mm 3 mps 598 mmHg 33%
    15:00 +24°C° 0 mm 3 mps 598 mmHg 34%
    16:00 +22°C° 0 mm 3 mps 598 mmHg 40%
    17:00 +21°C° 0 mm 3 mps 597 mmHg 47%
    18:00 +19°C° 0 mm 3 mps 597 mmHg 53%
    19:00 +19°C° 0 mm 2 mps 597 mmHg 56%
    20:00 +18°C° 0 mm 2 mps 598 mmHg 60%
    21:00 +19°C° 0 mm 1 mps 598 mmHg 63%
    22:00 +18°C° 0 mm 1 mps 598 mmHg 64%
    23:00 +18°C° 0 mm 1 mps 597 mmHg 65%

    20 November, Tuesday

    Time Temperature Precipitation Wind Pressure Humidity
    00:00 +18°C° 0 mm 1 mps 597 mmHg 65%
    01:00 +18°C° 0 mm 1 mps 597 mmHg 65%
    02:00 +16°C° 0 mm 1 mps 596 mmHg 65%
    03:00 +16°C° 0 mm 1 mps 596 mmHg 65%
    04:00 +15°C° 0 mm 1 mps 596 mmHg 65%
    05:00 +15°C° 0 mm 1 mps 596 mmHg 64%
    06:00 +15°C° 0 mm 1 mps 596 mmHg 64%
    07:00 +16°C° 0 mm 1 mps 597 mmHg 57%
    08:00 +19°C° 0 mm 1 mps 598 mmHg 50%
    09:00 +20°C° 0 mm 1 mps 599 mmHg 43%
    10:00 +21°C° 0 mm 1 mps 599 mmHg 40%
    11:00 +21°C° 0 mm 2 mps 599 mmHg 36%
    12:00 +23°C° 0 mm 2 mps 599 mmHg 32%
    13:00 +24°C° 0 mm 3 mps 599 mmHg 33%
    14:00 +24°C° 0 mm 3 mps 598 mmHg 34%
    15:00 +24°C° 0 mm 3 mps 598 mmHg 35%
    16:00 +22°C° 0.1 mm 3 mps 598 mmHg 41%
    17:00 +21°C° 0.1 mm 3 mps 598 mmHg 46%
    18:00 +19°C° 0.1 mm 3 mps 598 mmHg 51%
    19:00 +19°C° 0 mm 2 mps 598 mmHg 53%
    20:00 +18°C° 0 mm 2 mps 598 mmHg 56%
    21:00 +19°C° 0 mm 1 mps 598 mmHg 58%
    22:00 +18°C° 0 mm 1 mps 598 mmHg 59%
    23:00 +18°C° 0 mm 1 mps 597 mmHg 59%

    21 November, Wednesday

    Time Temperature Precipitation Wind Pressure Humidity
    00:00 +18°C° 0 mm 1 mps 597 mmHg 59%
    01:00 +16°C° 0 mm 1 mps 597 mmHg 59%
    02:00 +16°C° 0 mm 1 mps 596 mmHg 59%
    03:00 +16°C° 0 mm 1 mps 596 mmHg 59%
    04:00 +15°C° 0 mm 1 mps 596 mmHg 59%
    05:00 +15°C° 0 mm 1 mps 596 mmHg 59%
    06:00 +14°C° 0 mm 1 mps 596 mmHg 59%
    07:00 +16°C° 0 mm 1 mps 597 mmHg 52%
    08:00 +18°C° 0 mm 1 mps 598 mmHg 46%
    09:00 +20°C° 0 mm 1 mps 599 mmHg 39%
    10:00 +20°C° 0 mm 2 mps 599 mmHg 36%
    11:00 +21°C° 0 mm 2 mps 599 mmHg 32%
    12:00 +22°C° 0 mm 3 mps 599 mmHg 29%
    13:00 +22°C° 0 mm 3 mps 599 mmHg 30%
    14:00 +24°C° 0 mm 3 mps 598 mmHg 31%
    15:00 +23°C° 0 mm 4 mps 598 mmHg 32%
    16:00 +22°C° 0 mm 3 mps 598 mmHg 38%
    17:00 +20°C° 0 mm 3 mps 598 mmHg 44%
    18:00 +19°C° 0 mm 3 mps 597 mmHg 49%
    19:00 +19°C° 0 mm 2 mps 598 mmHg 51%
    20:00 +18°C° 0 mm 2 mps 598 mmHg 53%
    21:00 +19°C° 0 mm 1 mps 598 mmHg 55%
    22:00 +18°C° 0 mm 1 mps 598 mmHg 55%
    23:00 +18°C° 0 mm 1 mps 597 mmHg 55%
    Show more